EN

Hourly Weather Cape Coast

Today, 4 December, Friday

Time Temperature Precipitation Wind Pressure Humidity
00:00 +26°C° 0 mm 4 mps 758 mmHg 93%
01:00 +26°C° 0 mm 4 mps 758 mmHg 94%
02:00 +26°C° 0 mm 3 mps 757 mmHg 94%
03:00 +25°C° 0 mm 3 mps 757 mmHg 95%
04:00 +25°C° 0 mm 3 mps 757 mmHg 95%
05:00 +25°C° 0 mm 3 mps 758 mmHg 96%
06:00 +25°C° 0 mm 2 mps 758 mmHg 96%
07:00 +27°C° 0 mm 3 mps 759 mmHg 90%
08:00 +28°C° 0 mm 3 mps 759 mmHg 84%
09:00 +30°C° 0 mm 3 mps 760 mmHg 78%
10:00 +31°C° 0 mm 3 mps 759 mmHg 73%
11:00 +33°C° 0 mm 3 mps 759 mmHg 69%
12:00 +34°C° 0 mm 4 mps 759 mmHg 64%
13:00 +34°C° 0.1 mm 4 mps 758 mmHg 65%
14:00 +34°C° 0.1 mm 4 mps 758 mmHg 65%
15:00 +34°C° 0.1 mm 4 mps 757 mmHg 65%
16:00 +32°C° 0.1 mm 5 mps 757 mmHg 71%
17:00 +30°C° 0.1 mm 5 mps 757 mmHg 77%
18:00 +28°C° 0.1 mm 5 mps 757 mmHg 83%
19:00 +28°C° 0 mm 5 mps 758 mmHg 85%
20:00 +28°C° 0 mm 5 mps 758 mmHg 86%
21:00 +27°C° 0 mm 4 mps 759 mmHg 87%
22:00 +27°C° 0 mm 4 mps 759 mmHg 89%
23:00 +27°C° 0 mm 4 mps 758 mmHg 90%

Tomorrow, 5 December, Saturday

Time Temperature Precipitation Wind Pressure Humidity
00:00 +27°C° 0 mm 3 mps 758 mmHg 91%
01:00 +26°C° 0 mm 3 mps 758 mmHg 92%
02:00 +26°C° 0 mm 3 mps 757 mmHg 92%
03:00 +26°C° 0 mm 3 mps 757 mmHg 93%
04:00 +26°C° 0 mm 3 mps 757 mmHg 94%
05:00 +26°C° 0 mm 3 mps 758 mmHg 94%
06:00 +26°C° 0 mm 3 mps 758 mmHg 95%
07:00 +27°C° 0 mm 3 mps 758 mmHg 87%
08:00 +29°C° 0 mm 4 mps 759 mmHg 80%
09:00 +32°C° 0 mm 4 mps 759 mmHg 73%
10:00 +32°C° 0 mm 4 mps 759 mmHg 70%
11:00 +33°C° 0 mm 4 mps 759 mmHg 66%
12:00 +34°C° 0 mm 4 mps 758 mmHg 63%
13:00 +34°C° 0.1 mm 4 mps 758 mmHg 64%
14:00 +33°C° 0.1 mm 4 mps 757 mmHg 66%
15:00 +33°C° 0.1 mm 4 mps 756 mmHg 67%
16:00 +32°C° 0.2 mm 4 mps 757 mmHg 73%
17:00 +29°C° 0.2 mm 4 mps 757 mmHg 79%
18:00 +28°C° 0.2 mm 3 mps 757 mmHg 85%
19:00 +28°C° 0.1 mm 3 mps 757 mmHg 86%
20:00 +27°C° 0.1 mm 3 mps 758 mmHg 88%
21:00 +27°C° 0.1 mm 3 mps 758 mmHg 89%
22:00 +27°C° 0 mm 3 mps 758 mmHg 90%
23:00 +27°C° 0 mm 3 mps 758 mmHg 92%

Day after tomorrow, 6 December, Sunday

Time Temperature Precipitation Wind Pressure Humidity
00:00 +26°C° 0 mm 3 mps 758 mmHg 93%
01:00 +26°C° 0 mm 3 mps 758 mmHg 94%
02:00 +26°C° 0 mm 3 mps 757 mmHg 95%
03:00 +26°C° 0 mm 3 mps 757 mmHg 96%
04:00 +26°C° 0 mm 3 mps 757 mmHg 96%
05:00 +26°C° 0 mm 3 mps 757 mmHg 96%
06:00 +26°C° 0 mm 3 mps 758 mmHg 96%
07:00 +27°C° 0 mm 4 mps 758 mmHg 89%
08:00 +29°C° 0 mm 4 mps 758 mmHg 82%
09:00 +30°C° 0 mm 4 mps 759 mmHg 75%
10:00 +32°C° 0 mm 4 mps 758 mmHg 71%
11:00 +33°C° 0 mm 4 mps 758 mmHg 68%
12:00 +33°C° 0 mm 4 mps 758 mmHg 64%
13:00 +33°C° 0.1 mm 4 mps 757 mmHg 65%
14:00 +33°C° 0.1 mm 4 mps 757 mmHg 67%
15:00 +33°C° 0.1 mm 5 mps 756 mmHg 68%
16:00 +32°C° 0 mm 4 mps 756 mmHg 72%
17:00 +29°C° 0 mm 4 mps 757 mmHg 77%
18:00 +28°C° 0 mm 4 mps 757 mmHg 82%
19:00 +28°C° 0 mm 4 mps 757 mmHg 84%
20:00 +28°C° 0 mm 4 mps 758 mmHg 86%
21:00 +27°C° 0 mm 4 mps 759 mmHg 87%
22:00 +27°C° 0 mm 4 mps 759 mmHg 88%
23:00 +27°C° 0 mm 4 mps 759 mmHg 89%

7 December, Monday

Time Temperature Precipitation Wind Pressure Humidity
00:00 +27°C° 0 mm 4 mps 758 mmHg 90%
01:00 +26°C° 0 mm 3 mps 758 mmHg 91%
02:00 +26°C° 0 mm 3 mps 758 mmHg 92%
03:00 +26°C° 0 mm 3 mps 758 mmHg 92%
04:00 +26°C° 0 mm 3 mps 758 mmHg 93%
05:00 +26°C° 0 mm 3 mps 758 mmHg 94%
06:00 +26°C° 0 mm 3 mps 758 mmHg 95%
07:00 +27°C° 0 mm 3 mps 758 mmHg 87%
08:00 +29°C° 0 mm 3 mps 759 mmHg 79%
09:00 +32°C° 0 mm 4 mps 759 mmHg 71%
10:00 +32°C° 0 mm 4 mps 759 mmHg 68%
11:00 +33°C° 0 mm 4 mps 759 mmHg 64%
12:00 +34°C° 0 mm 4 mps 758 mmHg 61%
13:00 +34°C° 0 mm 4 mps 758 mmHg 62%
14:00 +33°C° 0 mm 4 mps 758 mmHg 62%
15:00 +33°C° 0 mm 5 mps 757 mmHg 63%
16:00 +32°C° 0 mm 4 mps 757 mmHg 69%
17:00 +30°C° 0 mm 4 mps 758 mmHg 75%
18:00 +28°C° 0 mm 4 mps 758 mmHg 81%
19:00 +28°C° 0 mm 4 mps 758 mmHg 83%
20:00 +28°C° 0 mm 4 mps 759 mmHg 85%
21:00 +27°C° 0 mm 4 mps 759 mmHg 87%
22:00 +27°C° 0 mm 4 mps 759 mmHg 88%
23:00 +27°C° 0 mm 4 mps 759 mmHg 89%

8 December, Tuesday

Time Temperature Precipitation Wind Pressure Humidity
00:00 +27°C° 0 mm 3 mps 759 mmHg 91%
01:00 +27°C° 0 mm 3 mps 758 mmHg 91%
02:00 +26°C° 0 mm 3 mps 758 mmHg 92%
03:00 +26°C° 0 mm 3 mps 758 mmHg 93%
04:00 +26°C° 0 mm 3 mps 758 mmHg 94%
05:00 +26°C° 0 mm 3 mps 758 mmHg 94%
06:00 +26°C° 0 mm 3 mps 758 mmHg 94%
07:00 +27°C° 0 mm 3 mps 759 mmHg 87%
08:00 +29°C° 0 mm 3 mps 759 mmHg 79%
09:00 +32°C° 0 mm 4 mps 760 mmHg 71%
10:00 +32°C° 0 mm 4 mps 759 mmHg 70%
11:00 +32°C° 0 mm 4 mps 759 mmHg 69%
12:00 +33°C° 0 mm 4 mps 759 mmHg 67%
13:00 +33°C° 0.2 mm 5 mps 758 mmHg 68%
14:00 +33°C° 0.2 mm 5 mps 758 mmHg 68%
15:00 +33°C° 0.2 mm 5 mps 757 mmHg 69%
16:00 +32°C° 0.2 mm 5 mps 757 mmHg 74%
17:00 +30°C° 0.2 mm 5 mps 758 mmHg 79%
18:00 +28°C° 0.2 mm 4 mps 758 mmHg 84%
19:00 +28°C° 0.2 mm 4 mps 758 mmHg 85%
20:00 +28°C° 0.2 mm 4 mps 759 mmHg 87%
21:00 +27°C° 0.2 mm 4 mps 759 mmHg 88%
22:00 +27°C° 0 mm 4 mps 759 mmHg 89%
23:00 +27°C° 0 mm 4 mps 759 mmHg 90%

9 December, Wednesday

Time Temperature Precipitation Wind Pressure Humidity
00:00 +27°C° 0 mm 4 mps 759 mmHg 91%
01:00 +27°C° 0 mm 4 mps 759 mmHg 92%
02:00 +27°C° 0 mm 4 mps 758 mmHg 93%
03:00 +26°C° 0 mm 4 mps 758 mmHg 94%
04:00 +26°C° 0 mm 4 mps 758 mmHg 94%
05:00 +26°C° 0 mm 4 mps 758 mmHg 94%
06:00 +26°C° 0 mm 4 mps 758 mmHg 95%
07:00 +28°C° 0.1 mm 4 mps 759 mmHg 88%
08:00 +29°C° 0.1 mm 4 mps 759 mmHg 82%
09:00 +30°C° 0.1 mm 5 mps 760 mmHg 76%
10:00 +32°C° 0.6 mm 5 mps 759 mmHg 75%
11:00 +32°C° 0.6 mm 5 mps 759 mmHg 73%
12:00 +32°C° 0.6 mm 5 mps 758 mmHg 72%
13:00 +32°C° 0.3 mm 5 mps 758 mmHg 72%
14:00 +32°C° 0.3 mm 5 mps 757 mmHg 73%
15:00 +32°C° 0.3 mm 5 mps 757 mmHg 73%
16:00 +30°C° 0.1 mm 4 mps 757 mmHg 77%
17:00 +29°C° 0.1 mm 4 mps 757 mmHg 81%
18:00 +28°C° 0.1 mm 3 mps 758 mmHg 85%
19:00 +28°C° 0.1 mm 3 mps 758 mmHg 86%
20:00 +27°C° 0.1 mm 3 mps 759 mmHg 88%
21:00 +27°C° 0.1 mm 3 mps 760 mmHg 89%
22:00 +27°C° 0.3 mm 3 mps 760 mmHg 90%
23:00 +27°C° 0.3 mm 3 mps 759 mmHg 91%
Show more

We Need Your Consent

Meteoprog and our Service Providers may store and access personal data such as cookies, device identifiers or other similar technologies on your device and process such data to personalise content and ads, as well as provide social media features and to analyse the traffic.

  • Store and/or access information on your device

    Cookies, device identifiers or other information can be stored or accessed on your device for the purposes indicated above.

  • Personalised ads and content, ad and content measurement, audience insights, and products development

    Ads and content can be personalised based on a profile. More data can be added to better personalise ads and content. Ad and content performance can be measured. Insights about the audience who saw the ads and content can be derived. Such data can be used to develop or improve user’s experience, systems and software.

By clicking ‘I Agree’ you will allow the use of indicated cookies, device identifiers, web beacons or other similar technologies. Your settings can be changed in the browser on your device.

For certain purposes, legitimate interests may be relied on, rather than consent. You can read more about this in our Privacy and Cookie Policy.